This is the latest recevied weather packets stored in our database for station/object VK5TRM-13. If no packets are shown the sender has not sent any weather packets the latest 10 day(s).
| Time | Temp. | Humidity | Pressure | Rain* | Wind** | Luminosity | Snow |
|---|---|---|---|---|---|---|---|
| 1788146402 | 69° F | 45% | 772.2 mmHg | 0 in | - | - | - |
| 1788145502 | 69° F | 45% | 772.2 mmHg | 0 in | - | - | - |
| 1788144602 | 68° F | 45% | 772.6 mmHg | 0 in | - | - | - |
| 1788143702 | 68° F | 45% | 772.6 mmHg | 0 in | - | - | - |
| 1788142803 | 68° F | 56% | 772.9 mmHg | 0 in | - | - | - |
| 1788141903 | 68° F | 56% | 772.9 mmHg | 0 in | - | - | - |
| 1788141003 | 65° F | 56% | 773.2 mmHg | 0 in | - | - | - |
| 1788140103 | 65° F | 56% | 773.2 mmHg | 0 in | - | - | - |
| 1788139202 | 64° F | 60% | 773.5 mmHg | 0 in | - | - | - |
| 1788138302 | 64° F | 60% | 773.5 mmHg | 0 in | - | - | - |
| 1788137402 | 62° F | 68% | 773.6 mmHg | 0 in | - | - | - |
| 1788136502 | 62° F | 68% | 773.6 mmHg | 0 in | - | - | - |
| 1788135603 | 59° F | 70% | 773.8 mmHg | 0 in | - | - | - |
| 1788134702 | 59° F | 70% | 773.8 mmHg | 0 in | - | - | - |
| 1788133802 | 55° F | 77% | 773.8 mmHg | 0 in | - | - | - |
| 1788132902 | 55° F | 77% | 773.8 mmHg | 0 in | - | - | - |
| 1788132002 | 53° F | 80% | 774 mmHg | 0 in | - | - | - |
| 1788131102 | 53° F | 80% | 774 mmHg | 0 in | - | - | - |
| 1788130202 | 50° F | 89% | 774.1 mmHg | 0 in | - | - | - |
| 1788129302 | 50° F | 89% | 774.1 mmHg | 0 in | - | - | - |
| 1788128402 | 45° F | 97% | 774 mmHg | 0 in | - | - | - |
| 1788127502 | 45° F | 97% | 774 mmHg | 0 in | - | - | - |
| 1788126602 | 38° F | 95% | 773.8 mmHg | 0 in | - | - | - |
| 1788125703 | 38° F | 95% | 773.8 mmHg | 0 in | - | - | - |
| 1788124802 | 36° F | 94% | 773.7 mmHg | 0 in | - | - | - |
* Rain latest hour (hover to see other rain measurements)
** Current wind speed in m/s (hover to see current wind gust speed)